Location: Arrodets-la-Barthe
(43.0306°N, 0.2829°E)
Time: 12:12:56
(UTC+00:00)

Lacrosse 4 Rocket - Visible Passes

Search period start: 29 May 2022 00:00
Search period end: 08 June 2022 00:00
Orbit: 540 x 613 km, 68.0° (Epoch: 29 May)

Date Brightness Start Highest point End Pass type
(mag) Time Alt. Az. Time Alt. Az. Time Alt. Az.
29 May 1.8 03:14:49 11° SSW 03:18:52 61° ESE 03:23:02 10° NE visible
30 May 1.4 03:18:50 13° SSW 03:22:38 86° WNW 03:26:52 10° NNE visible
31 May 3.8 01:46:31 12° SE 01:48:18 15° ESE 01:50:38 10° ENE visible
31 May 1.7 03:22:47 13° SW 03:26:28 55° WNW 03:30:37 10° NNE visible
01 Jun 3.2 01:50:25 18° SE 01:51:56 22° ESE 01:55:13 10° ENE visible
01 Jun 2.3 03:26:40 11° WSW 03:30:21 36° NW 03:34:15 10° NNE visible
02 Jun 2.6 01:54:15 27° SSE 01:55:37 34° ESE 01:59:25 10° NE visible
02 Jun 2.9 03:30:43 10° WSW 03:34:17 25° NW 03:37:46 10° N visible
03 Jun 1.8 01:58:02 37° SSE 01:59:20 53° ESE 02:03:25 10° NE visible
03 Jun 3.4 03:35:18 10° W 03:38:14 18° NW 03:41:10 10° N visible
04 Jun 1.3 02:01:47 44° SSW 02:03:05 84° ESE 02:07:17 10° NNE visible
04 Jun 3.7 03:40:16 10° WNW 03:42:16 13° NW 03:44:15 10° NNW visible
05 Jun 3.8 00:29:14 12° E 00:29:14 12° E 00:30:37 10° ENE visible
05 Jun 1.6 02:05:28 38° SW 02:06:53 63° WNW 02:11:02 10° NNE visible
06 Jun 3.3 00:32:53 19° E 00:32:53 19° E 00:35:25 10° ENE visible
06 Jun 2.2 02:09:07 28° WSW 02:10:43 41° NW 02:14:42 10° NNE visible
07 Jun 2.7 00:36:29 29° E 00:36:29 29° E 00:39:41 10° NE visible
07 Jun 2.8 02:12:43 20° W 02:14:37 28° NW 02:18:14 10° N visible
